DW5683 Weather Reports


time (UTC)temp
C
wind
direction
speed
KPH
gust
KPH
rain 1hr
cm
rain 24hr
cm
rain mn
cm
humidity
%
barometer
mb
20260507111538 12 0 0.0 0.0 0.00 0.00 0.00 92 1017.4
20260507110038 12 0 0.0 0.0 0.00 0.00 0.00 92 1017.4
20260507104534 12 0 0.0 0.0 0.00 0.00 0.00 92 1017.3
20260507103039 12 0 0.0 0.0 0.00 0.00 0.00 92 1017.4
20260507101545 12 0 0.0 0.0 0.00 0.00 0.00 92 1017.4
20260507100038 12 0 0.0 0.0 0.00 0.00 0.00 92 1017.4
20260507094537 12 0 0.0 0.0 0.00 0.00 0.00 92 1017.5
20260507093039 12 0 0.0 0.0 0.00 0.00 0.00 92 1017.6
20260507091542 12 0 0.0 0.0 0.00 0.00 0.00 91 1017.4
20260507090042 12 0 0.0 0.0 0.00 0.00 0.00 92 1017.6
20260507084538 12 0 0.0 0.0 0.00 0.00 0.00 91 1017.5
20260507083046 13 0 0.0 0.0 0.00 0.00 0.00 91 1017.7
20260507081536 13 0 0.0 0.0 0.00 0.00 0.00 91 1017.7
20260507080042 13 0 0.0 0.0 0.00 0.00 0.00 91 1017.7
20260507074544 13 0 0.0 0.0 0.00 0.00 0.00 90 1017.7
20260507073039 13 0 0.0 0.0 0.00 0.00 0.00 90 1017.6
20260507071556 14 0 0.0 0.0 0.00 0.00 0.00 90 1017.7
20260507070038 15 0 0.0 0.0 0.00 0.00 0.00 89 1017.6
20260507064537 15 0 0.0 0.0 0.00 0.00 0.00 89 1017.5
20260507063039 15 0 0.0 0.0 0.00 0.00 0.00 88 1017.5
20260507061536 15 0 0.0 0.0 0.00 0.00 0.00 88 1017.5
20260507060043 15 0 0.0 0.0 0.00 0.00 0.00 87 1017.5
20260507054543 16 0 0.0 0.0 0.00 0.00 0.00 86 1017.5
20260507053042 16 0 0.0 0.0 0.00 0.00 0.00 87 1017.4
20260507051537 15 0 0.0 4.8 0.00 0.00 0.00 88 1017.3
20260507050035 16 0 0.0 0.0 0.00 0.00 0.00 87 1017.1
20260507044534 16 0 0.0 0.0 0.00 0.00 0.00 86 1016.9
20260507043039 16 0 0.0 0.0 0.00 0.00 0.00 85 1016.8
20260507041538 17 0 0.0 0.0 0.00 0.00 0.00 83 1016.6
20260507040048 17 0 0.0 0.0 0.00 0.00 0.00 81 1016.4
20260507034540 18 0 0.0 0.0 0.00 0.00 0.00 79 1016.4
20260507033038 18 0 0.0 0.0 0.00 0.00 0.00 77 1016.2
20260507031539 20 0 0.0 0.0 0.00 0.00 0.00 74 1016.2
20260507030038 21 0 0.0 0.0 0.00 0.00 0.00 70 1016.0
20260507024538 21 0 0.0 0.0 0.00 0.00 0.00 67 1016.0
20260507023037 22 0 0.0 0.0 0.00 0.00 0.00 64 1016.1
20260507021536 22 0 0.0 1.6 0.00 0.00 0.00 64 1016.0
20260507020035 22 0 0.0 0.0 0.00 0.00 0.00 64 1016.0
20260507014532 22 0 0.0 3.2 0.00 0.00 0.00 64 1016.1
20260507013038 22 0 0.0 0.0 0.00 0.00 0.00 64 1016.2
20260507011540 22 0 0.0 0.0 0.00 0.00 0.00 65 1016.3
20260507010038 22 192 0.0 1.6 0.00 0.00 0.00 65 1016.4
20260507004540 22 0 0.0 6.4 0.00 0.00 0.00 64 1016.5
20260507003035 22 0 0.0 4.8 0.00 0.00 0.00 66 1016.5
20260507001547 22 196 0.0 8.0 0.00 0.00 0.00 65 1016.6
20260507000040 22 196 1.6 6.4 0.00 0.00 0.00 66 1016.6
20260506234544 22 0 0.0 9.7 0.00 0.00 0.00 65 1016.7
20260506233038 21 0 0.0 8.0 0.00 0.00 0.00 64 1016.8
20260506231537 21 0 1.6 8.0 0.00 0.00 0.00 65 1017.0
20260506230035 21 194 0.0 8.0 0.00 0.00 0.00 65 1017.2
20260506224543 22 194 1.6 9.7 0.00 0.00 0.00 65 1017.4
20260506223041 22 0 0.0 9.7 0.00 0.00 0.00 65 1017.6
20260506221538 21 194 1.6 4.8 0.00 0.00 0.00 65 1017.8
20260506220042 22 194 0.0 8.0 0.00 0.00 0.00 65 1018.2
20260506214537 21 194 1.6 9.7 0.00 0.00 0.00 65 1018.4
20260506213035 21 0 0.0 8.0 0.00 0.00 0.00 66 1018.4
20260506211540 20 0 0.0 6.4 0.00 0.00 0.00 65 1018.6
20260506210038 20 0 0.0 4.8 0.00 0.00 0.00 67 1018.8
20260506203101 20 0 3.2 8.0 0.00 0.00 0.00 67 1019.1
20260506201539 20 181 0.0 6.4 0.00 0.00 0.00 70 1019.1
20260506200046 20 0 0.0 6.4 0.00 0.00 0.00 69 1019.2
20260506194536 20 0 0.0 6.4 0.00 0.00 0.00 70 1019.2
20260506193035 20 0 0.0 6.4 0.00 0.00 0.00 67 1019.5
20260506191534 20 175 1.6 9.7 0.00 0.00 0.00 70 1019.7
20260506190046 20 173 0.0 9.7 0.00 0.00 0.00 70 1020.0
20260506184548 20 168 1.6 9.7 0.00 0.00 0.00 71 1020.0
20260506183034 20 0 1.6 8.0 0.00 0.00 0.00 71 1020.1
20260506181534 19 164 0.0 6.4 0.00 0.00 0.00 74 1020.1
20260506180039 18 0 0.0 3.2 0.00 0.00 0.00 76 1020.1
20260506174537 17 0 0.0 3.2 0.00 0.00 0.00 76 1020.0
20260506173047 17 0 0.0 3.2 0.00 0.00 0.00 76 1020.1
20260506171538 17 0 0.0 3.2 0.00 0.00 0.00 79 1020.0
20260506170036 16 0 0.0 0.0 0.00 0.00 0.00 79 1020.0
20260506164536 16 0 0.0 0.0 0.00 0.00 0.00 80 1020.1
20260506163055 16 0 0.0 0.0 0.00 0.00 0.00 81 1020.0
20260506161538 15 0 0.0 0.0 0.00 0.00 0.00 81 1020.0
20260506160038 15 0 0.0 0.0 0.00 0.00 0.00 83 1019.9
20260506154543 15 0 0.0 0.0 0.00 0.00 0.00 84 1019.9
20260506153034 15 0 0.0 0.0 0.00 0.00 0.00 85 1019.9
20260506151540 15 0 0.0 0.0 0.00 0.00 0.00 86 1019.9
20260506150038 14 0 0.0 0.0 0.00 0.00 0.00 86 1019.7
20260506144537 13 0 0.0 0.0 0.00 0.00 0.00 86 1019.8
20260506143039 13 0 0.0 0.0 0.00 0.00 0.00 86 1019.8
20260506141535 13 0 0.0 0.0 0.00 0.00 0.00 87 1019.7
20260506140037 13 0 0.0 0.0 0.00 0.00 0.00 87 1019.5
20260506134538 13 0 0.0 0.0 0.00 0.00 0.00 87 1019.4
20260506133038 13 0 0.0 0.0 0.00 0.00 0.00 87 1019.3
20260506131539 13 0 0.0 0.0 0.00 0.00 0.00 86 1019.3
20260506130040 13 0 0.0 0.0 0.00 0.00 0.00 86 1019.1
20260506124535 13 0 0.0 0.0 0.00 0.00 0.00 86 1019.1
20260506123036 13 0 0.0 0.0 0.00 0.00 0.00 86 1018.9
20260506121532 13 0 0.0 0.0 0.00 0.00 0.00 86 1018.8
20260506120040 13 0 0.0 0.0 0.00 0.00 0.00 86 1018.7
20260506114534 13 0 0.0 0.0 0.00 0.00 0.00 86 1018.8
20260506113034 13 0 0.0 0.0 0.00 0.00 0.00 86 1018.7